Valladolid Airport, Spain

8:17 PM CEST on April 28, 2017 (GMT +0200)
Villanubla

Weather History for LEVD - July, 2013

Change the Weather History Date:

Thursday, July 18, 2013

  Actual Average Record
Temperature  
Mean Temperature 70 °F -  
Max Temperature 84 °F - - ()
Min Temperature 55 °F - - ()
Cooling Degree Days 4    
Growing Degree Days 20 (Base 50)    
Moisture  
Dew Point 50 °F    
Average Humidity 46    
Maximum Humidity 94    
Minimum Humidity 23    
Precipitation  
Precipitation 0.00 in - - ()
Sea Level Pressure  
Sea Level Pressure 30.14 in    
Wind  
Wind Speed 7 mph ()    
Max Wind Speed 12 mph    
Max Gust Speed 14 mph    
Visibility 6.2 miles    
Events      
T = Trace of Precipitation, MM = Missing Value Source: Averaged Metar Reports

Daily Weather History Graph

Daily Weather History Graph

Search for Another Location

Airport or City:

Trip Planner

Search our weather history database for the weather conditions in past years. The results will help you decide how hot, cold, wet, or windy it might be!

Date:

Astronomy

Jul. 18, 2013 Rise Set
Actual Time 7:00 AM CEST 9:50 PM CEST
Civil Twilight 6:27 AM CEST 10:23 PM CEST
Nautical Twilight 5:46 AM CEST 11:04 PM CEST
Astronomical Twilight 4:58 AM CEST 11:51 PM CEST
Moon 5:30 PM CEST (7/18) 2:41 AM CEST (7/18)
Length of Visible Light 15h 55m
Length of Day
14h 49m
Waxing Gibbous, 75% of the Moon is Illuminated
Jul 18
Waxing Gibbous
Jul 22
Full
Jul 29
Last Quarter
Aug 6
New
Aug 14
First Quarter

Hourly Weather History & Observations

Time (CEST) Temp. Dew Point Humidity Pressure Visibility Wind Dir Wind Speed Gust Speed Precip Events Conditions
7:00 AM 57.2 °F 51.8 °F 82% 30.18 in - NE 10.4 mph - N/A   Clear
7:30 AM 55.4 °F 53.6 °F 94% 30.18 in - NE 9.2 mph - N/A   Clear
8:00 AM 57.2 °F 53.6 °F 88% 30.18 in - NE 8.1 mph - N/A   Clear
8:30 AM 59.0 °F 53.6 °F 82% 30.18 in - NE 8.1 mph - N/A   Clear
9:00 AM 60.8 °F 55.4 °F 82% 30.18 in - ENE 8.1 mph - N/A   Clear
9:30 AM 62.6 °F 53.6 °F 72% 30.18 in - ENE 11.5 mph - N/A   Clear
10:00 AM 64.4 °F 55.4 °F 73% 30.18 in - ENE 9.2 mph - N/A   Clear
10:30 AM 68.0 °F 57.2 °F 68% 30.18 in - ENE 8.1 mph - N/A   Clear
11:00 AM 69.8 °F 57.2 °F 64% 30.18 in - ENE 6.9 mph - N/A   Clear
11:30 AM 71.6 °F 57.2 °F 60% 30.18 in - ENE 8.1 mph - N/A   Clear
12:00 PM 73.4 °F 55.4 °F 53% 30.18 in - ENE 6.9 mph - N/A   Clear
12:30 PM 77.0 °F 55.4 °F 47% 30.18 in - East 4.6 mph - N/A   Clear
1:00 PM 77.0 °F 51.8 °F 41% 30.18 in - East 3.5 mph - N/A   Clear
1:30 PM 78.8 °F 50.0 °F 36% 30.15 in - NE 4.6 mph - N/A   Clear
2:00 PM 80.6 °F 50.0 °F 34% 30.15 in - ENE 4.6 mph - N/A   Clear
2:30 PM 82.4 °F 48.2 °F 30% 30.15 in 6.2 mi NNE 2.3 mph 13.8 mph N/A   Partly Cloudy
3:00 PM 82.4 °F 46.4 °F 28% 30.15 in 6.2 mi West 3.5 mph - N/A   Partly Cloudy
3:30 PM 82.4 °F 46.4 °F 28% 30.15 in 6.2 mi SSW 3.5 mph - N/A   Partly Cloudy
4:00 PM 82.4 °F 44.6 °F 26% 30.12 in 6.2 mi NE 5.8 mph - N/A   Partly Cloudy
4:30 PM 84.2 °F 46.4 °F 27% 30.12 in 6.2 mi NW 1.2 mph - N/A   Partly Cloudy
5:00 PM 84.2 °F 46.4 °F 27% 30.12 in 6.2 mi NNE 3.5 mph - N/A   Partly Cloudy
5:30 PM 84.2 °F 46.4 °F 27% 30.09 in 6.2 mi North 8.1 mph - N/A   Partly Cloudy
6:00 PM 84.2 °F 46.4 °F 27% 30.09 in 6.2 mi North 8.1 mph - N/A   Partly Cloudy
6:30 PM 84.2 °F 44.6 °F 25% 30.09 in 6.2 mi NW 6.9 mph - N/A   Partly Cloudy
7:00 PM 84.2 °F 44.6 °F 25% 30.09 in 6.2 mi NW 10.4 mph - N/A   Partly Cloudy
7:30 PM 84.2 °F 42.8 °F 23% 30.09 in 6.2 mi North 10.4 mph - N/A   Partly Cloudy
8:00 PM 82.4 °F 42.8 °F 25% 30.09 in - North 9.2 mph - N/A   Clear
8:30 PM 80.6 °F 41.0 °F 24% 30.09 in - North 8.1 mph - N/A   Clear
9:00 PM 78.8 °F 41.0 °F 26% 30.09 in 6.2 mi North 8.1 mph - N/A   Partly Cloudy
9:30 PM 75.2 °F 48.2 °F 38% 30.09 in 6.2 mi ENE 6.9 mph - N/A   Partly Cloudy